Torna al catalogo

OV1-20/OV1-21 AKM

AttivoPO
NORAD 5395·ROCKET BODY·🇺🇸 United States

Lanciato Aug 7, 1971 da Vandenberg Space Force Base

Loading…

Prossimi Passaggi (prossime 24 ore)

TLE

AggiornatoSource: Space-Track

Epoca: Sep 14, 2026, 14:18 UTC

1 05395U 71067K   26257.59634595  .00000526  00000-0  15005-3 0  9998
2 05395  87.6128 292.8136 0056873 103.7129 257.0413 14.42510614870475

Traccia OV1-20/OV1-21 AKM in tempo reale con AllMySat

Download on the App Store